STARLINK-1683 (46578 NORAD) Tracking and Keplerian Element Data

This shows tracking and keplerian element data for the satellite.

Feedback or suggestion? Click here.




ElementValue
Catalog46578
NameSTARLINK-1683
Epoch Orbit935
Epoch Day336.91667824
Epoch Year2020
RAAN165.2285
Inclination52.9992
Eccentricity0.0001996
Argument of Perigee33.4664
Mean Anonmoly7.0949
Mean Motion15.62720114
Decay Rate0.00049338
L11 46578U 20070AY 20336.91667824 .00049338 00000-0 54206-3 0 9993
L22 46578 52.9992 165.2285 0001996 33.4664 7.0949 15.62720114 9353

Live tracking and technical data element details for STARLINK-1683 (NORAD 46578). STARLINK-1683 can be tracked NOW for your location showing map with azimuth and elevation plus other details from your city location.

Track the satellite on the map from your city or location and see movement details for azimuth, elevation, latitude, longitude, range, height, and movement on the map or in text.







IsCatalogInMostPopularTable: catalog: 46578, numindb: 15
Update: records affected: 1



GetName: 46578 STARLINK-1683

Hit Count: updated at: Wed, 02 Dec 2020 17:55:05 GMT